Location: Atherton
(17.2661°S, 145.4859°E)
Time: 00:07:56
(UTC+10:00)

Vanguard 1 - Pass Details

Date: 02 July 2025
Orbit: 649 x 3822 km, 34.2° (Epoch: 17 July)

Event Time Altitude Azimuth Distance (km) Brightness Sun altitude
Rises 13:31:57 0° 329° (NNW) 7,064 15.2 46.3°
Reaches altitude 10° 13:36:47 10° 335° (NNW) 6,362 15.2 45.8°
Maximum altitude 13:57:07 44° 41° (NE) 4,693 14.2 43.5°
Drops below altitude 10° 14:16:33 10° 104° (ESE) 6,209 13.9 41.0°
Sets 14:21:04 0° 110° (ESE) 6,901 14.0 40.3°
